North Adams, MA

9:07 AM EST on January 17, 2018 (GMT -0500)
Harriman And West

Weather History for KAQW - October, 2012

Change the Weather History Date:

Monday, October 1, 2012

  Actual Average Record
Temperature  
Mean Temperature 56 °F -  
Max Temperature 63 °F - - ()
Min Temperature 52 °F - - ()
Degree Days  
Heating Degree Days 8    
Growing Degree Days 6 (Base 50)    
Moisture  
Dew Point 48 °F    
Average Humidity 72    
Maximum Humidity 83    
Minimum Humidity 63    
Precipitation  
Precipitation 0.00 in - - ()
Sea Level Pressure  
Sea Level Pressure 29.79 in    
Wind  
Wind Speed 8 mph (West)    
Max Wind Speed 13 mph    
Max Gust Speed 21 mph    
Visibility 10 miles    
Events Rain    
Averages and records for this station are not official NWS values.
T = Trace of Precipitation, MM = Missing Value Source: NWS Daily Summary

Daily Weather History Graph

Daily Weather History Graph

Search for Another Location

Airport or City:

Trip Planner

Search our weather history database for the weather conditions in past years. The results will help you decide how hot, cold, wet, or windy it might be!

Date:

Astronomy

Oct. 01, 2012 Rise Set
Actual Time 6:50 AM EDT 6:33 PM EDT
Civil Twilight 6:22 AM EDT 7:01 PM EDT
Nautical Twilight 5:49 AM EDT 7:34 PM EDT
Astronomical Twilight 5:16 AM EDT 8:07 PM EDT
Moon 7:04 PM EDT (10/1) 8:20 AM EDT (10/1)
Length of Visible Light 12h 39m
Length of Day
11h 42m
Full, 98% of the Moon is Illuminated
Oct 1
Full
Oct 8
Last Quarter
Oct 15
New
Oct 21
First Quarter
Oct 29
Full

Hourly Weather History & Observations

Time (EDT) Temp. Dew Point Humidity Pressure Visibility Wind Dir Wind Speed Gust Speed Precip Events Conditions
12:52 AM 52.0 °F 46.9 °F 83% 29.72 in 10.0 mi West 8.1 mph 16.1 mph 0.00 in   Overcast
1:52 AM 53.1 °F 46.0 °F 77% 29.72 in 10.0 mi West 8.1 mph - N/A   Overcast
2:52 AM 53.1 °F 46.0 °F 77% 29.71 in 10.0 mi West 4.6 mph - 0.00 in   Overcast
3:52 AM 53.1 °F 45.0 °F 74% 29.70 in 10.0 mi West 5.8 mph - N/A   Overcast
4:52 AM 53.1 °F 46.9 °F 80% 29.70 in 10.0 mi WSW 6.9 mph - 0.00 in Rain Light Rain
5:52 AM 53.1 °F 46.0 °F 77% 29.71 in 10.0 mi West 8.1 mph - 0.00 in   Overcast
6:52 AM 53.1 °F 45.0 °F 74% 29.71 in 10.0 mi West 8.1 mph 17.3 mph N/A   Overcast
7:52 AM 54.0 °F 45.0 °F 72% 29.72 in 10.0 mi WSW 8.1 mph - N/A   Overcast
8:52 AM 54.0 °F 46.0 °F 75% 29.73 in 10.0 mi WSW 8.1 mph 19.6 mph N/A   Overcast
9:52 AM 55.0 °F 46.9 °F 74% 29.75 in 10.0 mi West 6.9 mph - N/A   Overcast
10:52 AM 55.9 °F 46.9 °F 72% 29.76 in 10.0 mi West 8.1 mph - N/A   Overcast
11:52 AM 57.0 °F 48.0 °F 72% 29.77 in 10.0 mi West 9.2 mph 18.4 mph N/A   Overcast
12:52 PM 59.0 °F 48.9 °F 69% 29.78 in 10.0 mi West 9.2 mph 18.4 mph N/A   Overcast
1:52 PM 59.0 °F 50.0 °F 72% 29.79 in 10.0 mi West 9.2 mph - N/A   Overcast
2:52 PM 60.1 °F 50.0 °F 69% 29.81 in 10.0 mi West 8.1 mph 17.3 mph N/A   Overcast
3:29 PM 60.8 °F 48.2 °F 63% 29.82 in 10.0 mi West 12.7 mph 19.6 mph N/A   Overcast
3:52 PM 60.1 °F 48.9 °F 67% 29.83 in 10.0 mi WSW 9.2 mph - N/A   Overcast
4:52 PM 60.1 °F 48.9 °F 67% 29.85 in 10.0 mi West 6.9 mph 20.7 mph N/A   Overcast
6:52 PM 57.9 °F 50.0 °F 75% 29.88 in 10.0 mi NNW 4.6 mph - N/A   Overcast
7:52 PM 61.0 °F 48.9 °F 64% 29.89 in 10.0 mi West 11.5 mph 20.7 mph N/A   Overcast
8:52 PM 60.1 °F 48.9 °F 67% 29.92 in 10.0 mi WSW 11.5 mph 17.3 mph N/A   Overcast
9:52 PM 59.0 °F 48.9 °F 69% 29.94 in 10.0 mi West 5.8 mph - N/A   Mostly Cloudy
11:52 PM 57.0 °F 50.0 °F 77% 29.95 in 10.0 mi West 4.6 mph - N/A   Clear